Regional Weather Roundup
Issued by NWS Boston, MA

Home | Current Version | Previous Version | Text Only | Print | Product List | Glossary On
Versions: 1 2 3 4 5 6 7 8 9 10 11 12 13 14 15 16 17 18 19 20 21 22 23 24 25 26 27 28 29 30 31 32 33 34 35 36 37 38 39 40 41 42 43 44 45 46 47 48 49 50
000
ASUS41 KBOX 211910
RWRBOX

REGIONAL WEATHER ROUNDUP
NATIONAL WEATHER SERVICE TAUNTON MA
200 PM EST TUE FEB 21 2017

NOTE:  "FAIR" INDICATES FEW OR NO CLOUDS BELOW 12,000 FEET WITH NO
SIGNIFICANT WEATHER AND/OR OBSTRUCTIONS TO VISIBILITY.

MAZALL-212000-
EASTERN MASSACHUSETTS

CITY           SKY/WX    TMP DP  RH WIND       PRES   REMARKS
BOSTON         PTSUNNY   39  27  62 E14       30.28F WCI  31
BEVERLY        MOSUNNY   39  25  57 E7        30.27F
LAWRENCE       CLOUDY    44  21  40 S6        30.29F
BEDFORD        CLOUDY    43  16  33 MISG      30.24F
BLUE HILL      NOT AVBL
NORWOOD        PTSUNNY   45  18  34 CALM      30.26F
MARSHFIELD     CLOUDY    41  27  56 E8        30.28F
PLYMOUTH       SUNNY     43  25  49 E8        30.28F
TAUNTON        MOSUNNY   46  18  32 VRB3      30.26F
NEW BEDFORD    MOSUNNY   45  27  49 S10       30.27F
$$

MAZALL-212000-
CAPE COD AND THE ISLANDS

CITY           SKY/WX    TMP DP  RH WIND       PRES   REMARKS
FALMOUTH       SUNNY     45  27  49 MISG      30.28F
HYANNIS        SUNNY     44  25  47 S7        30.27F
CHATHAM        SUNNY     41  24  51 E6        30.30F
PROVINCETOWN   SUNNY     40  26  57 NE8       30.30F
NANTUCKET      SUNNY     44  24  45 N8        30.29F
MARTHAS VNYRD  SUNNY     43  27  53 S10       30.29F
$$

MAZALL-212000-
CENTRAL AND WESTERN MASSACHUSETTS

CITY           SKY/WX    TMP DP  RH WIND       PRES   REMARKS
WORCESTER      MOSUNNY   42  12  29 S8        30.22F
FITCHBURG      MOSUNNY   44  15  31 SE8       30.25F
ORANGE         CLOUDY    39  17  41 S12       30.24F WCI  32
SPRINGFIELD    CLOUDY    43  16  34 S8        30.23F
WESTFIELD      CLOUDY    41  17  38 SE9       30.23F
NORTH ADAMS    MOSUNNY   44  12  27 W5        30.17F
PITTSFIELD     MOSUNNY   41  12  30 S7G17     30.16F
$$

RIZALL-212000-
RHODE ISLAND

CITY           SKY/WX    TMP DP  RH WIND       PRES   REMARKS
PROVIDENCE     CLOUDY    44  19  36 VRB6      30.27F
NEWPORT        MOSUNNY   42  26  53 S9        30.28F
BLOCK ISLAND   CLOUDY    40  27  59 S7        30.30F
SMITHFIELD     MOSUNNY   45  15  30 CALM      30.25F
WESTERLY       MOSUNNY   42  22  44 S7        30.30F
$$

CTZALL-212000-
CONNECTICUT

CITY           SKY/WX    TMP DP  RH WIND       PRES   REMARKS
BRADLEY INTL   CLOUDY    44  17  33 S8        30.25F
HARTFORD       CLOUDY    45  17  32 S5        30.26F
BRIDGEPORT     CLOUDY    43  22  43 SW5       30.28F
DANBURY        CLOUDY    44  21  40 S10G20    30.25F
GROTON         CLOUDY    41  28  60 S7        30.29F
NEW HAVEN      CLOUDY    42  21  43 S7        30.28F
CHESTER        FAIR      43  14  31 SW8       30.26F
MERIDEN        CLOUDY    43  15  32 S9        30.27F
WILLIMANTIC    MOSUNNY   45  16  31 S9        30.27F
OXFORD         PTSUNNY   43  16  33 MISG      30.26F
$$

MEZ002-015-021-024-NHZ003-005-008-011-012-014-VTZ005-008-212000-
NORTHERN NEW ENGLAND

CITY           SKY/WX    TMP DP  RH WIND       PRES   REMARKS
PORTLAND ME    MOSUNNY   35  16  45 S8        30.28F WCI  29
BANGOR ME      CLOUDY    34   4  28 CALM      30.24F
CONCORD NH     CLOUDY    40  16  37 SE10      30.23F
MANCHESTER NH  CLOUDY    42  16  34 SE9       30.23F
NASHUA NH      CLOUDY    44  16  32 VRB5      30.25F
PORTSMOUTH NH  CLOUDY    37  22  55 SE10      30.25F WCI  29
JAFFREY NH     MOSUNNY   41  11  29 VRB5      30.21F
KEENE NH       CLOUDY    42  16  34 SW6       30.22F
BURLINGTON VT  CLOUDY    40  15  36 S12G23    30.10F
MT. WASHINGTON PTSUNNY   30   7  37 SW25G32     N/A  WCI  16
$$

NYZ052-076-212000-
EASTERN NEW YORK

CITY           SKY/WX    TMP DP  RH WIND       PRES   REMARKS
ALBANY         CLOUDY    42  16  34 S22       30.19F
NEW YORK CITY  CLOUDY    47  28  47 S10       30.27F
$$

ANZALL-212000-
MARINE OBSERVATIONS

STATION/POSITION TIME  TEMP    WIND        PRES    VSBY  WAVE
                       AIR SEA DIR/SP/G                  HT/PER
                 (UTC) (F)     (DEG/KT/KT) (MB)    (MI)  (FT/S)
BOSTON BUOY      1750   38 42  130/  2/  4 1026.0          3/ 7
BUZZARDS BAY     1800   37     230/  4/  5 1027.1F
NANTUCKET SOUND  1850   39 39   80/  4/  4 1025.8F         1/ 7
MASS BAY-STELLWA 1804   37 40  160/  4/  6 1025.4F         3/ 6
ISLE OF SHOALS   1900   35     120/  8/  9 1025.0F
S OF BLOCK IS    1855      42                N/A           2/ 6
$$

......................KEY.........................
  SKY/WX - SKY CONDITION/PRESENT WEATHER
  TMP    - TEMPERATURE IN FAHRENHEIT
  DWPT   - DEWPOINT IN FAHRENHEIT
  RH     - RELATIVE HUMIDITY IN PERCENT
  WIND   - DIRECTION AND SPEED IN MPH
  PRES   - MEAN SEA LEVEL PRESSURE IN INCHES OF HG
  WCI    - WIND CHILL INDEX
  VSB    - VISIBILITY IN MILES
  HX     - HEAT INDEX
  TC     - TEMPERATURE IN CELSIUS
  VRB    - VARIABLE WIND DIRECTION
  N/A    - NOT AVAILABLE



USA.gov is the U.S. government's official web portal to all federal, state and local government web resources and services.